Time,TemperatureF,DewpointF,PressureIn,WindDirection,WindDirectionDegrees,WindSpeedMPH,WindSpeedGustMPH,Humidity,HourlyPrecipIn,Conditions,Clouds,dailyrainin,SolarRadiationWatts/m^2,SoftwareType,DateUTC
2013-05-25 00:09:00,40.0,31.0,31.55,NE,36,1.0,3.0,71,0.00,,,0.00,0,weatherlink.com 1.10,2013-05-25 06:09:00,
2013-05-25 00:24:00,39.7,31.0,31.56,NE,36,0.0,3.0,71,0.00,,,0.00,0,weatherlink.com 1.10,2013-05-25 06:24:00,
2013-05-25 00:39:00,40.0,31.0,31.56,NE,36,0.0,2.0,71,0.00,,,0.00,0,weatherlink.com 1.10,2013-05-25 06:39:00,
2013-05-25 00:54:00,38.7,31.0,31.55,NE,34,0.0,4.0,74,0.00,,,0.00,0,weatherlink.com 1.10,2013-05-25 06:54:00,
2013-05-25 01:09:00,38.6,31.0,31.56,NE,34,1.0,4.0,74,0.00,,,0.00,0,weatherlink.com 1.10,2013-05-25 07:09:00,
2013-05-25 01:24:00,38.2,31.0,31.56,NNE,32,0.0,4.0,75,0.00,,,0.00,0,weatherlink.com 1.10,2013-05-25 07:24:00,
2013-05-25 01:39:00,38.2,31.0,31.56,NNE,32,0.0,2.0,75,0.00,,,0.00,0,weatherlink.com 1.10,2013-05-25 07:39:00,
2013-05-25 01:54:00,39.3,31.0,31.56,NNE,32,0.0,3.0,73,0.00,,,0.00,0,weatherlink.com 1.10,2013-05-25 07:54:00,
2013-05-25 02:09:00,38.4,31.0,31.56,NNE,32,0.0,2.0,74,0.00,,,0.00,0,weatherlink.com 1.10,2013-05-25 08:09:00,
2013-05-25 02:24:00,37.9,31.0,31.56,NNE,32,0.0,3.0,75,0.00,,,0.00,0,weatherlink.com 1.10,2013-05-25 08:24:00,
2013-05-25 02:39:00,38.2,31.0,31.56,NNE,32,2.0,3.0,74,0.00,,,0.00,0,weatherlink.com 1.10,2013-05-25 08:39:00,
2013-05-25 02:55:00,37.6,30.0,31.56,NNE,32,0.0,2.0,75,0.00,,,0.00,0,weatherlink.com 1.10,2013-05-25 08:55:00,
2013-05-25 03:10:00,37.1,31.0,31.55,NNE,32,0.0,2.0,77,0.00,,,0.00,0,weatherlink.com 1.10,2013-05-25 09:10:00,
2013-05-25 03:25:00,37.1,31.0,31.56,NNE,32,0.0,0.0,77,0.00,,,0.00,0,weatherlink.com 1.10,2013-05-25 09:25:00,
2013-05-25 03:40:00,37.0,30.0,31.56,NNE,32,0.0,1.0,77,0.00,,,0.00,0,weatherlink.com 1.10,2013-05-25 09:40:00,
2013-05-25 03:55:00,36.6,30.0,31.56,NNE,32,0.0,1.0,78,0.00,,,0.00,0,weatherlink.com 1.10,2013-05-25 09:55:00,
2013-05-25 04:10:00,36.3,30.0,31.56,NNE,32,0.0,1.0,78,0.00,,,0.00,0,weatherlink.com 1.10,2013-05-25 10:10:00,
2013-05-25 04:25:00,36.6,30.0,31.56,NNE,32,0.0,2.0,78,0.00,,,0.00,0,weatherlink.com 1.10,2013-05-25 10:25:00,
2013-05-25 04:40:00,36.3,30.0,31.56,NNE,32,0.0,0.0,78,0.00,,,0.00,0,weatherlink.com 1.10,2013-05-25 10:40:00,
2013-05-25 04:55:00,36.7,30.0,31.56,NNE,32,0.0,1.0,76,0.00,,,0.00,0,weatherlink.com 1.10,2013-05-25 10:55:00,
2013-05-25 05:10:00,36.8,30.0,31.56,NNE,32,0.0,2.0,76,0.00,,,0.00,0,weatherlink.com 1.10,2013-05-25 11:10:00,
2013-05-25 05:26:00,37.2,29.0,31.57,NNE,32,2.0,2.0,73,0.00,,,0.00,0,weatherlink.com 1.10,2013-05-25 11:26:00,
2013-05-25 05:40:00,37.1,30.0,31.57,NNE,32,0.0,2.0,74,0.00,,,0.00,0,weatherlink.com 1.10,2013-05-25 11:40:00,
2013-05-25 05:55:00,36.4,30.0,31.57,NNE,32,0.0,0.0,76,0.00,,,0.00,7,weatherlink.com 1.10,2013-05-25 11:55:00,
2013-05-25 06:10:00,36.1,30.0,31.58,NNE,32,0.0,0.0,77,0.00,,,0.00,12,weatherlink.com 1.10,2013-05-25 12:10:00,
2013-05-25 06:25:00,36.5,30.0,31.58,NNE,32,0.0,1.0,76,0.00,,,0.00,18,weatherlink.com 1.10,2013-05-25 12:25:00,
2013-05-25 06:40:00,37.1,30.0,31.58,NNE,32,0.0,1.0,75,0.00,,,0.00,23,weatherlink.com 1.10,2013-05-25 12:40:00,
2013-05-25 06:55:00,36.6,30.0,31.58,NNE,32,0.0,0.0,76,0.00,,,0.00,28,weatherlink.com 1.10,2013-05-25 12:55:00,
2013-05-25 07:10:00,37.1,30.0,31.57,NNE,32,2.0,2.0,75,0.00,,,0.00,91,weatherlink.com 1.10,2013-05-25 13:10:00,
2013-05-25 07:25:00,37.8,31.0,31.58,NNE,32,0.0,3.0,75,0.00,,,0.00,137,weatherlink.com 1.10,2013-05-25 13:25:00,
2013-05-25 07:40:00,38.2,31.0,31.58,NNE,32,0.0,2.0,76,0.00,,,0.00,153,weatherlink.com 1.10,2013-05-25 13:40:00,
2013-05-25 07:55:00,38.2,31.0,31.58,NNE,32,1.0,3.0,75,0.00,,,0.00,134,weatherlink.com 1.10,2013-05-25 13:55:00,
2013-05-25 08:10:00,38.3,32.0,31.58,NNE,32,1.0,2.0,78,0.00,,,0.00,144,weatherlink.com 1.10,2013-05-25 14:10:00,
2013-05-25 08:25:00,38.7,32.0,31.57,NNE,32,1.0,3.0,78,0.00,,,0.00,155,weatherlink.com 1.10,2013-05-25 14:25:00,
2013-05-25 08:40:00,39.2,33.0,31.57,NNE,32,2.0,4.0,78,0.00,,,0.00,202,weatherlink.com 1.10,2013-05-25 14:40:00,
2013-05-25 08:55:00,41.0,34.0,31.56,NNE,31,1.0,4.0,75,0.00,,,0.00,316,weatherlink.com 1.10,2013-05-25 14:55:00,
2013-05-25 09:10:00,41.6,35.0,31.57,NNW,346,0.0,5.0,77,0.00,,,0.00,387,weatherlink.com 1.10,2013-05-25 15:10:00,
2013-05-25 09:25:00,41.7,35.0,31.57,NNW,334,3.0,4.0,76,0.00,,,0.00,334,weatherlink.com 1.10,2013-05-25 15:25:00,
2013-05-25 09:40:00,42.5,35.0,31.57,NW,306,5.0,6.0,75,0.00,,,0.00,425,weatherlink.com 1.10,2013-05-25 15:40:00,
2013-05-25 09:55:00,43.2,35.0,31.56,NW,305,2.0,7.0,73,0.00,,,0.00,420,weatherlink.com 1.10,2013-05-25 15:55:00,
2013-05-25 10:10:00,44.7,32.0,31.55,NW,325,9.0,9.0,62,0.00,,,0.00,606,weatherlink.com 1.10,2013-05-25 16:10:00,
2013-05-25 10:25:00,46.6,32.0,31.55,NNW,327,7.0,12.0,57,0.00,,,0.00,661,weatherlink.com 1.10,2013-05-25 16:25:00,
2013-05-25 10:40:00,45.8,30.0,31.55,NNE,13,3.0,10.0,55,0.00,,,0.00,555,weatherlink.com 1.10,2013-05-25 16:40:00,
2013-05-25 10:55:00,47.2,32.0,31.55,NW,311,8.0,10.0,56,0.00,,,0.00,728,weatherlink.com 1.10,2013-05-25 16:55:00,
2013-05-25 11:11:00,47.9,33.0,31.55,NW,323,4.0,11.0,57,0.00,,,0.00,738,weatherlink.com 1.10,2013-05-25 17:11:00,
2013-05-25 11:26:00,48.0,32.0,31.54,NW,318,6.0,10.0,55,0.00,,,0.00,788,weatherlink.com 1.10,2013-05-25 17:26:00,
2013-05-25 11:41:00,47.7,32.0,31.54,WNW,290,9.0,9.0,55,0.00,,,0.00,657,weatherlink.com 1.10,2013-05-25 17:41:00,
2013-05-25 11:56:00,49.4,32.0,31.53,NW,326,6.0,13.0,51,0.00,,,0.00,851,weatherlink.com 1.10,2013-05-25 17:56:00,
2013-05-25 12:11:00,49.9,34.0,31.53,West,281,5.0,10.0,54,0.00,,,0.00,847,weatherlink.com 1.10,2013-05-25 18:11:00,
2013-05-25 12:26:00,50.4,34.0,31.53,West,269,7.0,10.0,54,0.00,,,0.00,969,weatherlink.com 1.10,2013-05-25 18:26:00,
2013-05-25 12:41:00,51.2,33.0,31.52,NW,305,7.0,12.0,51,0.00,,,0.00,606,weatherlink.com 1.10,2013-05-25 18:41:00,
2013-05-25 12:56:00,50.9,32.0,31.52,WSW,248,4.0,10.0,49,0.00,,,0.00,591,weatherlink.com 1.10,2013-05-25 18:56:00,
2013-05-25 13:11:00,51.3,34.0,31.52,West,278,5.0,9.0,52,0.00,,,0.00,782,weatherlink.com 1.10,2013-05-25 19:11:00,
2013-05-25 13:26:00,52.6,35.0,31.51,NNW,333,7.0,11.0,51,0.00,,,0.00,793,weatherlink.com 1.10,2013-05-25 19:26:00,
2013-05-25 13:41:00,53.1,34.0,31.51,WNW,297,7.0,14.0,49,0.00,,,0.00,1111,weatherlink.com 1.10,2013-05-25 19:41:00,
2013-05-25 13:56:00,53.6,34.0,31.51,NNW,344,4.0,10.0,48,0.00,,,0.00,508,weatherlink.com 1.10,2013-05-25 19:56:00,
2013-05-25 14:11:00,53.8,34.0,31.51,NW,319,3.0,14.0,48,0.00,,,0.00,759,weatherlink.com 1.10,2013-05-25 20:11:00,
2013-05-25 14:26:00,53.5,34.0,31.51,North,5,3.0,7.0,47,0.00,,,0.00,561,weatherlink.com 1.10,2013-05-25 20:26:00,
2013-05-25 14:41:00,54.7,36.0,31.50,NW,319,7.0,10.0,49,0.00,,,0.00,953,weatherlink.com 1.10,2013-05-25 20:41:00,
2013-05-25 14:56:00,55.4,32.0,31.50,NW,315,5.0,9.0,42,0.00,,,0.00,1028,weatherlink.com 1.10,2013-05-25 20:56:00,
2013-05-25 15:11:00,55.8,33.0,31.50,SSW,202,0.0,11.0,43,0.00,,,0.00,592,weatherlink.com 1.10,2013-05-25 21:11:00,
2013-05-25 15:26:00,55.4,32.0,31.50,WSW,256,0.0,8.0,41,0.00,,,0.00,388,weatherlink.com 1.10,2013-05-25 21:26:00,
2013-05-25 15:41:00,55.5,33.0,31.50,WSW,238,5.0,6.0,43,0.00,,,0.00,466,weatherlink.com 1.10,2013-05-25 21:41:00,
2013-05-25 15:56:00,55.7,33.0,31.49,NW,306,4.0,9.0,42,0.00,,,0.00,336,weatherlink.com 1.10,2013-05-25 21:56:00,
2013-05-25 16:11:00,56.6,33.0,31.49,South,190,4.0,7.0,41,0.00,,,0.00,1042,weatherlink.com 1.10,2013-05-25 22:11:00,
2013-05-25 16:26:00,56.7,33.0,31.49,NNW,341,6.0,12.0,41,0.00,,,0.00,318,weatherlink.com 1.10,2013-05-25 22:26:00,
2013-05-25 16:41:00,55.9,30.0,31.49,WSW,243,0.0,7.0,38,0.00,,,0.00,315,weatherlink.com 1.10,2013-05-25 22:41:00,
2013-05-25 16:56:00,55.9,33.0,31.50,West,265,0.0,3.0,42,0.00,,,0.00,220,weatherlink.com 1.10,2013-05-25 22:56:00,
2013-05-25 17:11:00,56.4,33.0,31.49,West,276,4.0,7.0,42,0.00,,,0.00,745,weatherlink.com 1.10,2013-05-25 23:11:00,
2013-05-25 17:26:00,56.4,32.0,31.49,NNW,338,2.0,9.0,40,0.00,,,0.00,241,weatherlink.com 1.10,2013-05-25 23:26:00,
2013-05-25 17:41:00,56.1,32.0,31.49,WSW,244,4.0,6.0,40,0.00,,,0.00,260,weatherlink.com 1.10,2013-05-25 23:41:00,
2013-05-25 17:56:00,57.3,34.0,31.49,North,355,6.0,11.0,41,0.00,,,0.00,234,weatherlink.com 1.10,2013-05-25 23:56:00,
2013-05-25 18:11:00,57.5,33.0,31.48,NNW,346,4.0,10.0,40,0.00,,,0.00,264,weatherlink.com 1.10,2013-05-26 00:11:00,
2013-05-25 18:26:00,57.1,33.0,31.48,NNW,335,6.0,11.0,41,0.00,,,0.00,541,weatherlink.com 1.10,2013-05-26 00:26:00,
2013-05-25 18:41:00,55.8,33.0,31.48,NNE,18,7.0,11.0,43,0.00,,,0.00,547,weatherlink.com 1.10,2013-05-26 00:41:00,
2013-05-25 18:56:00,55.4,35.0,31.48,North,5,5.0,8.0,46,0.00,,,0.00,162,weatherlink.com 1.10,2013-05-26 00:56:00,
2013-05-25 19:11:00,56.5,34.0,31.49,NNE,21,0.0,11.0,43,0.00,,,0.00,378,weatherlink.com 1.10,2013-05-26 01:11:00,
2013-05-25 19:26:00,54.3,32.0,31.49,NNE,22,6.0,9.0,43,0.00,,,0.00,65,weatherlink.com 1.10,2013-05-26 01:26:00,
2013-05-25 19:41:00,53.7,33.0,31.49,NNE,23,4.0,8.0,45,0.00,,,0.00,77,weatherlink.com 1.10,2013-05-26 01:41:00,
2013-05-25 19:56:00,53.6,34.0,31.49,NNE,14,4.0,7.0,47,0.00,,,0.00,65,weatherlink.com 1.10,2013-05-26 01:56:00,
2013-05-25 20:11:00,53.3,33.0,31.49,NE,49,4.0,8.0,46,0.00,,,0.00,56,weatherlink.com 1.10,2013-05-26 02:11:00,
2013-05-25 20:26:00,53.2,33.0,31.49,NNE,13,4.0,7.0,46,0.00,,,0.00,46,weatherlink.com 1.10,2013-05-26 02:26:00,
2013-05-25 20:41:00,52.8,32.0,31.49,NNE,16,3.0,6.0,46,0.00,,,0.00,32,weatherlink.com 1.10,2013-05-26 02:41:00,
2013-05-25 20:56:00,52.4,33.0,31.49,NNE,19,3.0,6.0,48,0.00,,,0.00,21,weatherlink.com 1.10,2013-05-26 02:56:00,
2013-05-25 21:11:00,51.6,33.0,31.49,NNE,23,1.0,6.0,49,0.00,,,0.00,7,weatherlink.com 1.10,2013-05-26 03:11:00,
2013-05-25 21:26:00,50.8,33.0,31.49,NE,40,5.0,5.0,51,0.00,,,0.00,0,weatherlink.com 1.10,2013-05-26 03:26:00,
2013-05-25 21:41:00,50.5,33.0,31.50,North,360,1.0,7.0,51,0.00,,,0.00,0,weatherlink.com 1.10,2013-05-26 03:41:00,
2013-05-25 21:57:00,50.2,33.0,31.50,NNE,14,1.0,4.0,51,0.00,,,0.00,0,weatherlink.com 1.10,2013-05-26 03:57:00,
2013-05-25 22:12:00,49.8,33.0,31.50,NNE,32,1.0,5.0,52,0.00,,,0.00,0,weatherlink.com 1.10,2013-05-26 04:12:00,
2013-05-25 22:27:00,49.8,32.0,31.51,NE,38,0.0,4.0,51,0.00,,,0.00,0,weatherlink.com 1.10,2013-05-26 04:27:00,
2013-05-25 22:42:00,50.1,32.0,31.51,NNE,15,3.0,6.0,50,0.00,,,0.00,0,weatherlink.com 1.10,2013-05-26 04:42:00,
2013-05-25 22:57:00,49.8,32.0,31.51,NNE,26,0.0,4.0,51,0.00,,,0.00,0,weatherlink.com 1.10,2013-05-26 04:57:00,
2013-05-25 23:12:00,48.7,32.0,31.52,North,5,0.0,3.0,52,0.00,,,0.00,0,weatherlink.com 1.10,2013-05-26 05:12:00,
2013-05-25 23:27:00,48.3,32.0,31.52,North,5,0.0,4.0,54,0.00,,,0.00,0,weatherlink.com 1.10,2013-05-26 05:27:00,
2013-05-25 23:42:00,48.2,32.0,31.53,NE,47,0.0,4.0,54,0.00,,,0.00,0,weatherlink.com 1.10,2013-05-26 05:42:00,
2013-05-25 23:57:00,48.3,32.0,31.53,NE,47,0.0,2.0,53,0.00,,,0.00,0,weatherlink.com 1.10,2013-05-26 05:57:00,